CW1792 Weather Reports


Display with metric or nautical units.
time (UTC)temp
F
wind
direction
speed
MPH
gust
MPH
rain 1hr
in
rain 24hr
in
rain mn
in
humidity
%
barometer
mb
20170325133710 51 310 1.0 2.0 0.00 0.70 0.02 97 1021.1
20170325133210 51 310 1.0 3.0 0.00 0.70 0.02 97 1021.0
20170325132710 51 275 1.0 3.0 0.00 0.70 0.02 97 1020.9
20170325132210 51 297 2.0 6.0 0.00 0.70 0.02 97 1020.8
20170325131710 51 284 1.0 3.0 0.00 0.70 0.02 97 1020.9
20170325131211 51 297 1.0 3.0 0.00 0.70 0.02 97 1020.8
20170325130711 51 285 0.0 5.0 0.00 0.70 0.02 97 1020.8
20170325130211 51 286 1.0 6.0 0.00 0.70 0.02 97 1020.8
20170325125710 51 293 2.0 5.0 0.00 0.70 0.02 97 1020.9
20170325125210 51 275 1.0 3.0 0.00 0.70 0.02 97 1020.9
20170325124710 51 293 1.0 3.0 0.00 0.70 0.02 97 1020.9
20170325124210 51 311 2.0 6.0 0.00 0.70 0.02 97 1020.9
20170325123711 51 328 1.0 2.0 0.00 0.70 0.02 97 1020.9
20170325123211 51 288 1.0 5.0 0.00 0.70 0.02 97 1020.9
20170325122711 51 265 1.0 3.0 0.00 0.70 0.02 97 1020.9
20170325122211 51 297 2.0 7.0 0.00 0.70 0.02 97 1020.8
20170325121710 51 319 1.0 3.0 0.00 0.70 0.02 98 1020.8
20170325121211 51 323 2.0 3.0 0.00 0.70 0.02 98 1020.8
20170325120711 51 296 2.0 5.0 0.00 0.70 0.02 99 1020.8
20170325120211 52 281 0.0 1.0 0.00 0.70 0.02 99 1020.8
20170325115710 52 281 1.0 2.0 0.00 0.70 0.02 99 1020.8
20170325115211 52 328 2.0 6.0 0.00 0.70 0.02 99 1020.8
20170325114711 52 295 1.0 2.0 0.00 0.70 0.02 99 1020.8
20170325114211 52 294 1.0 2.0 0.00 0.70 0.02 99 1020.8
20170325113711 51 281 0.0 1.0 0.00 0.70 0.02 99 1020.8
20170325113211 51 281 0.0 0.0 0.00 0.70 0.02 99 1020.8
20170325112711 51 281 0.0 0.0 0.00 0.70 0.02 99 1020.8
20170325112211 51 281 0.0 1.0 0.00 0.70 0.02 99 1020.8
20170325111711 51 281 0.0 1.0 0.00 0.70 0.02 99 1020.8
20170325111211 51 281 0.0 1.0 0.00 0.70 0.02 99 1020.8
20170325110710 51 281 0.0 1.0 0.00 0.70 0.02 99 1020.8
20170325110211 51 281 0.0 2.0 0.00 0.70 0.02 99 1020.9
20170325105710 51 281 0.0 0.0 0.00 0.70 0.02 99 1020.9
20170325105211 51 281 0.0 1.0 0.00 0.70 0.02 99 1020.9
20170325104710 51 281 0.0 0.0 0.00 0.70 0.02 99 1020.9
20170325104211 51 281 0.0 0.0 0.00 0.70 0.02 99 1021.0
20170325103712 51 281 1.0 2.0 0.00 0.70 0.02 99 1021.0
20170325103211 51 281 0.0 1.0 0.00 0.70 0.02 99 1021.1
20170325102711 51 281 0.0 1.0 0.00 0.70 0.02 99 1021.1
20170325102210 51 281 0.0 1.0 0.00 0.70 0.02 99 1021.1
20170325101711 50 281 1.0 2.0 0.00 0.70 0.02 99 1021.1
20170325101211 50 246 0.0 2.0 0.00 0.70 0.02 99 1021.1
20170325100711 50 246 1.0 2.0 0.00 0.70 0.02 99 1021.1
20170325100211 50 212 1.0 1.0 0.00 0.70 0.02 99 1021.1
20170325095711 50 212 0.0 0.0 0.00 0.70 0.02 99 1021.1
20170325095211 50 212 0.0 0.0 0.00 0.70 0.02 99 1021.1
20170325094711 50 212 0.0 0.0 0.00 0.70 0.02 99 1021.1
20170325094211 50 212 0.0 2.0 0.00 0.70 0.02 99 1021.1
20170325093711 50 157 0.0 2.0 0.00 0.70 0.02 99 1021.1
20170325093211 50 154 0.0 1.0 0.00 0.70 0.02 99 1021.1
20170325092711 50 152 0.0 2.0 0.00 0.70 0.02 99 1021.0
20170325092211 50 143 0.0 2.0 0.00 0.70 0.02 99 1021.1
20170325091711 50 143 0.0 1.0 0.00 0.70 0.02 99 1021.0
20170325091210 50 143 1.0 2.0 0.00 0.70 0.02 99 1021.1
20170325090711 50 119 0.0 0.0 0.00 0.70 0.02 99 1021.1
20170325090211 50 119 0.0 0.0 0.00 0.70 0.02 99 1021.1
20170325085711 51 119 0.0 0.0 0.00 0.70 0.02 99 1021.0
20170325085211 51 119 0.0 0.0 0.00 0.70 0.02 99 1021.1
20170325084711 51 119 0.0 0.0 0.01 0.70 0.02 99 1021.1
20170325084211 51 119 0.0 0.0 0.01 0.70 0.02 99 1021.1
20170325083711 51 119 0.0 0.0 0.01 0.70 0.02 99 1021.1
20170325083210 52 119 0.0 0.0 0.01 0.70 0.02 99 1021.1
20170325082711 52 119 0.0 0.0 0.01 0.70 0.02 99 1021.2
20170325082210 52 119 0.0 0.0 0.01 0.70 0.02 99 1021.2
20170325081711 52 119 0.0 1.0 0.01 0.70 0.02 99 1021.3
20170325081211 52 119 0.0 1.0 0.01 0.70 0.02 99 1021.3
20170325080711 53 119 0.0 1.0 0.02 0.70 0.02 99 1021.3
20170325080211 53 119 1.0 2.0 0.02 0.70 0.02 99 1021.3
20170325075711 53 119 0.0 1.0 0.02 0.70 0.02 99 1021.4
20170325075211 53 119 0.0 0.0 0.02 0.70 0.02 99 1021.4
20170325074710 53 119 0.0 1.0 0.01 0.69 0.01 99 1021.6
20170325074211 53 119 0.0 1.0 0.02 0.69 0.01 99 1021.6
20170325073711 53 119 0.0 1.0 0.03 0.69 0.01 99 1021.6
20170325073210 53 119 0.0 2.0 0.03 0.69 0.01 99 1021.6
20170325072710 53 119 1.0 2.0 0.03 0.69 0.01 99 1021.6
20170325072210 53 119 1.0 2.0 0.03 0.69 0.01 99 1021.7
20170325071710 53 119 0.0 1.0 0.03 0.69 0.01 99 1021.7
20170325071211 53 119 0.0 1.0 0.03 0.69 0.01 99 1021.7
20170325070710 53 119 0.0 1.0 0.03 0.68 0.00 99 1021.7
20170325070210 53 119 0.0 2.0 0.03 0.68 0.00 99 1021.7
20170325065710 53 119 0.0 1.0 0.03 0.68 0.68 99 1021.7
20170325065211 53 119 0.0 1.0 0.03 0.68 0.68 99 1021.7
20170325064711 53 119 0.0 1.0 0.03 0.68 0.68 99 1021.7
20170325064211 53 119 0.0 1.0 0.02 0.67 0.67 99 1021.7
20170325063711 53 119 0.0 1.0 0.02 0.67 0.67 99 1021.8
20170325063211 53 119 0.0 0.0 0.01 0.66 0.66 99 1021.8
20170325062711 53 119 0.0 0.0 0.01 0.66 0.66 99 1021.7
20170325062211 53 119 0.0 0.0 0.01 0.66 0.66 99 1021.7
20170325061710 53 119 0.0 1.0 0.01 0.66 0.66 99 1021.7
20170325061210 53 119 0.0 1.0 0.04 0.66 0.66 99 1021.7
20170325060711 53 119 0.0 1.0 0.03 0.65 0.65 99 1021.7
20170325060211 53 119 0.0 1.0 0.04 0.65 0.65 99 1021.8
20170325055710 53 119 0.0 1.0 0.04 0.65 0.65 99 1021.8
20170325055211 53 119 0.0 1.0 0.04 0.65 0.65 99 1021.8
20170325054711 53 119 0.0 1.0 0.04 0.65 0.65 99 1021.8
20170325054210 53 119 0.0 1.0 0.04 0.65 0.65 99 1021.9
20170325053711 53 119 1.0 2.0 0.04 0.65 0.65 99 1022.0
20170325053211 53 119 1.0 2.0 0.04 0.65 0.65 99 1022.0
20170325052711 53 119 0.0 2.0 0.04 0.65 0.65 99 1022.1
20170325052210 53 119 0.0 3.0 0.04 0.65 0.65 99 1022.1
20170325051711 53 97 0.0 2.0 0.05 0.65 0.65 99 1022.2
20170325051211 54 97 1.0 2.0 0.02 0.62 0.62 99 1022.2
20170325050710 54 96 0.0 0.0 0.02 0.62 0.62 99 1022.2
20170325050211 54 96 0.0 1.0 0.01 0.61 0.61 99 1022.1
20170325045711 54 96 0.0 2.0 0.01 0.61 0.61 99 1022.1
20170325045210 54 96 1.0 2.0 0.01 0.61 0.61 99 1022.0
20170325044710 54 96 1.0 2.0 0.02 0.61 0.61 99 1022.0
20170325044211 54 96 0.0 1.0 0.02 0.61 0.61 99 1022.0
20170325043711 54 96 0.0 1.0 0.02 0.61 0.61 99 1022.0
20170325043211 54 96 0.0 1.0 0.02 0.61 0.61 99 1021.9
20170325042711 54 96 1.0 2.0 0.02 0.61 0.61 99 1021.9
20170325042211 54 96 1.0 2.0 0.02 0.61 0.61 99 1021.9
20170325041711 54 102 1.0 2.0 0.01 0.60 0.60 99 1021.8
20170325041211 54 102 0.0 2.0 0.01 0.60 0.60 99 1021.8
20170325040711 54 102 1.0 2.0 0.01 0.60 0.60 99 1021.8
20170325040211 54 102 1.0 1.0 0.01 0.60 0.60 99 1021.8
20170325035711 54 102 1.0 2.0 0.01 0.60 0.60 99 1021.7
20170325035211 54 102 1.0 2.0 0.01 0.60 0.60 99 1021.7
20170325034710 54 102 0.0 2.0 0.00 0.59 0.59 99 1021.7
20170325034211 54 102 2.0 3.0 0.00 0.59 0.59 99 1021.8
20170325033711 54 96 0.0 1.0 0.00 0.59 0.59 99 1021.7
20170325033211 54 96 0.0 2.0 0.00 0.59 0.59 99 1021.7
20170325032711 54 96 1.0 2.0 0.00 0.59 0.59 99 1021.6
20170325032211 54 96 1.0 2.0 0.00 0.59 0.59 99 1021.6
20170325031711 54 96 0.0 2.0 0.00 0.59 0.59 99 1021.6
20170325031211 54 96 1.0 1.0 0.00 0.59 0.59 99 1021.5
20170325030711 54 96 0.0 1.0 0.00 0.59 0.59 99 1021.5
20170325030211 54 96 0.0 1.0 0.00 0.59 0.59 99 1021.5
20170325025711 54 96 0.0 0.0 0.00 0.59 0.59 99 1021.5
20170325025211 54 96 0.0 0.0 0.00 0.59 0.59 99 1021.5
20170325024711 54 96 0.0 0.0 0.00 0.59 0.59 99 1021.5
20170325024211 54 96 1.0 2.0 0.00 0.59 0.59 99 1021.4
20170325023711 54 96 1.0 2.0 0.00 0.59 0.59 99 1021.5
20170325023211 54 96 0.0 0.0 0.00 0.59 0.59 99 1021.4
20170325022711 54 96 0.0 1.0 0.00 0.59 0.59 98 1021.4
20170325022211 54 96 0.0 1.0 0.00 0.59 0.59 98 1021.5
20170325021711 54 96 0.0 1.0 0.00 0.59 0.59 98 1021.4
20170325021211 54 96 1.0 2.0 0.00 0.59 0.59 98 1021.4
20170325020710 54 96 1.0 2.0 0.00 0.59 0.59 98 1021.4
20170325020211 54 96 1.0 3.0 0.00 0.59 0.59 98 1021.4
20170325015711 54 51 0.0 3.0 0.00 0.59 0.59 98 1021.4
20170325015211 54 41 0.0 2.0 0.00 0.59 0.59 98 1021.4
20170325014711 54 41 1.0 2.0 0.01 0.59 0.59 98 1021.4
20170325014211 54 350 1.0 2.0 0.02 0.59 0.59 97 1021.4
20170325013710 54 350 1.0 2.0 0.05 0.59 0.59 97 1021.4
20170325013211 55 350 1.0 2.0 0.05 0.59 0.59 97 1021.3
20170325012711 54 350 1.0 2.0 0.05 0.59 0.59 97 1021.5
20170325012210 55 346 1.0 3.0 0.05 0.59 0.59 97 1021.4
20170325011711 55 354 1.0 2.0 0.06 0.59 0.59 97 1021.5
20170325011211 55 354 2.0 3.0 0.06 0.59 0.59 97 1021.4
20170325010711 55 344 2.0 3.0 0.07 0.59 0.59 98 1021.4
20170325010211 54 340 4.0 6.0 0.07 0.59 0.59 98 1021.5
20170325005710 55 330 3.0 6.0 0.08 0.59 0.59 98 1021.4
20170325005211 55 331 4.0 8.0 0.08 0.59 0.59 98 1021.5
20170325004710 55 318 2.0 3.0 0.07 0.58 0.58 98 1021.6
20170325004211 55 344 2.0 6.0 0.07 0.57 0.57 98 1021.5
20170325003711 55 195 1.0 2.0 0.04 0.54 0.54 97 1021.4
20170325003211 55 98 1.0 2.0 0.04 0.54 0.54 97 1021.2
20170325002711 55 104 0.0 1.0 0.04 0.54 0.54 98 1021.2
20170325002210 55 104 1.0 3.0 0.04 0.54 0.54 98 1021.2
20170325001711 55 97 1.0 2.0 0.04 0.53 0.53 97 1021.2
20170325001211 55 83 1.0 3.0 0.04 0.53 0.53 98 1021.2
20170325000711 55 92 2.0 3.0 0.03 0.52 0.52 97 1021.2
20170325000211 55 86 1.0 5.0 0.03 0.52 0.52 97 1021.2
20170324235711 55 74 2.0 5.0 0.02 0.51 0.51 97 1021.1
20170324235211 55 93 2.0 5.0 0.02 0.51 0.51 97 1021.1
20170324234710 55 64 1.0 3.0 0.02 0.51 0.51 97 1021.1
20170324234211 55 98 2.0 3.0 0.02 0.50 0.50 97 1021.1
20170324233711 55 83 1.0 6.0 0.02 0.50 0.50 97 1021.1
20170324233210 55 127 3.0 6.0 0.03 0.50 0.50 96 1021.2
20170324232711 55 95 3.0 6.0 0.03 0.50 0.50 97 1021.3
20170324232211 54 102 3.0 7.0 0.03 0.50 0.50 96 1021.3
20170324231710 54 85 2.0 5.0 0.03 0.49 0.49 97 1021.4
20170324231210 54 83 3.0 6.0 0.03 0.49 0.49 97 1021.3
20170324230710 54 89 3.0 7.0 0.03 0.49 0.49 96 1021.4
20170324230210 54 87 4.0 8.0 0.03 0.49 0.49 96 1021.3
20170324225711 54 90 4.0 8.0 0.03 0.49 0.49 96 1021.4
20170324225211 54 72 6.0 12.0 0.04 0.49 0.49 96 1021.3
20170324224711 54 93 4.0 8.0 0.04 0.49 0.49 96 1021.4
20170324224211 54 72 6.0 12.0 0.03 0.48 0.48 96 1021.4
20170324223711 54 84 3.0 6.0 0.03 0.48 0.48 97 1021.4
20170324223210 54 91 2.0 5.0 0.03 0.47 0.47 97 1021.5
20170324222710 54 95 2.0 8.0 0.03 0.47 0.47 96 1021.4
20170324222211 54 85 2.0 7.0 0.03 0.47 0.47 97 1021.5
20170324221710 54 70 5.0 9.0 0.02 0.46 0.46 96 1021.5
20170324221211 54 85 1.0 5.0 0.03 0.46 0.46 96 1021.6
20170324220711 53 83 5.0 12.0 0.03 0.46 0.46 96 1021.6
20170324220210 53 71 7.0 13.0 0.03 0.46 0.46 96 1021.8
20170324215711 53 85 5.0 12.0 0.04 0.46 0.46 95 1021.7
20170324215211 54 87 5.0 13.0 0.03 0.45 0.45 95 1021.7
20170324214711 54 84 6.0 12.0 0.03 0.45 0.45 95 1021.6
20170324214211 54 93 5.0 14.0 0.03 0.45 0.45 96 1021.6
20170324213710 54 101 4.0 10.0 0.03 0.45 0.45 96 1021.7
20170324213210 54 111 3.0 9.0 0.03 0.44 0.44 95 1021.8
20170324212710 54 90 4.0 12.0 0.03 0.44 0.44 95 1021.8
20170324212211 54 98 5.0 12.0 0.03 0.44 0.44 95 1021.8
20170324211711 55 77 5.0 12.0 0.03 0.44 0.44 95 1021.9
20170324211210 55 84 7.0 12.0 0.02 0.43 0.43 96 1021.8
20170324210710 55 73 5.0 8.0 0.02 0.43 0.43 96 1021.9
20170324210210 55 90 4.0 8.0 0.03 0.43 0.43 96 1022.0
20170324205710 55 80 5.0 13.0 0.05 0.42 0.42 96 1022.0
20170324205210 54 104 4.0 12.0 0.09 0.42 0.42 96 1022.0
20170324204711 54 122 3.0 7.0 0.11 0.42 0.42 95 1022.0
20170324204210 54 108 3.0 12.0 0.13 0.42 0.42 95 1022.1
20170324203710 54 105 4.0 12.0 0.14 0.42 0.42 96 1022.2
20170324203211 54 105 3.0 10.0 0.15 0.41 0.41 96 1022.1
20170324202711 53 91 4.0 12.0 0.17 0.41 0.41 96 1022.3
20170324202211 53 97 5.0 12.0 0.19 0.41 0.41 96 1022.4
20170324201711 53 94 5.0 8.0 0.20 0.41 0.41 96 1022.3
20170324201211 53 73 3.0 10.0 0.22 0.41 0.41 96 1022.2
20170324200711 53 62 3.0 8.0 0.24 0.41 0.41 96 1022.3
20170324200211 52 85 3.0 8.0 0.25 0.40 0.40 95 1022.3
20170324195711 52 99 4.0 9.0 0.23 0.37 0.37 95 1022.5
20170324195210 52 105 2.0 7.0 0.21 0.33 0.33 95 1022.5
20170324194711 52 86 3.0 6.0 0.21 0.31 0.31 95 1022.6
20170324194210 52 92 3.0 12.0 0.20 0.29 0.29 95 1022.6
20170324193710 53 99 3.0 13.0 0.21 0.28 0.28 95 1022.5
20170324193211 53 120 3.0 8.0 0.20 0.26 0.26 94 1022.6
20170324192711 53 95 1.0 5.0 0.20 0.24 0.24 96 1022.6
20170324192211 53 97 3.0 6.0 0.19 0.22 0.22 95 1022.7
20170324191710 53 91 3.0 6.0 0.19 0.21 0.21 95 1022.7
20170324191210 53 76 2.0 5.0 0.17 0.19 0.19 95 1022.7
20170324190710 53 72 2.0 5.0 0.15 0.17 0.17 94 1022.7
20170324190211 53 78 2.0 8.0 0.14 0.15 0.15 93 1022.7
20170324185710 53 35 2.0 5.0 0.13 0.14 0.14 93 1022.7
20170324185211 53 137 2.0 5.0 0.12 0.12 0.12 91 1022.8
20170324184711 53 170 2.0 7.0 0.10 0.10 0.10 91 1022.6
20170324184211 53 156 4.0 12.0 0.09 0.09 0.09 91 1022.4
20170324183710 54 170 3.0 8.0 0.07 0.07 0.07 91 1022.5
20170324183211 53 149 2.0 13.0 0.06 0.06 0.06 92 1022.5
20170324182711 53 154 5.0 17.0 0.04 0.04 0.04 88 1022.3
20170324182210 54 147 5.0 16.0 0.03 0.03 0.03 88 1022.2
20170324181711 54 136 6.0 14.0 0.02 0.02 0.02 86 1022.2
20170324181210 55 128 5.0 14.0 0.02 0.02 0.02 87 1022.1
20170324180710 55 175 4.0 12.0 0.02 0.02 0.02 88 1022.0
20170324180211 56 144 5.0 12.0 0.01 0.01 0.01 87 1021.9
20170324175710 56 177 5.0 14.0 0.01 0.01 0.01 86 1022.1
20170324175210 56 134 3.0 12.0 0.00 0.00 0.00 84 1022.1
20170324174711 56 178 3.0 13.0 0.00 0.00 0.00 84 1022.0
20170324174211 56 118 3.0 18.0 0.00 0.00 0.00 83 1021.9
20170324173710 56 123 5.0 12.0 0.00 0.00 0.00 80 1021.8
20170324173210 56 119 5.0 12.0 0.00 0.00 0.00 81 1021.7
20170324172711 55 113 4.0 12.0 0.00 0.00 0.00 81 1021.7
20170324172211 55 107 5.0 13.0 0.00 0.00 0.00 80 1021.6
20170324171710 55 131 5.0 12.0 0.00 0.00 0.00 79 1021.7
20170324171211 55 108 3.0 7.0 0.00 0.00 0.00 78 1021.7
20170324170710 55 147 3.0 10.0 0.00 0.00 0.00 76 1021.7
20170324170211 55 146 2.0 12.0 0.00 0.00 0.00 76 1021.6
20170324165711 55 135 4.0 12.0 0.00 0.00 0.00 73 1021.6
20170324165210 55 114 2.0 7.0 0.00 0.00 0.00 74 1021.5
20170324164710 54 135 3.0 7.0 0.00 0.00 0.00 75 1021.3
20170324164211 54 142 5.0 12.0 0.00 0.00 0.00 76 1021.5
20170324163710 54 143 3.0 8.0 0.00 0.00 0.00 78 1021.2
20170324163211 54 89 4.0 12.0 0.00 0.00 0.00 77 1021.1
20170324162711 55 113 2.0 5.0 0.00 0.00 0.00 70 1021.1
20170324162210 55 97 5.0 10.0 0.00 0.00 0.00 68 1021.1
20170324161711 55 84 4.0 12.0 0.00 0.00 0.00 65 1021.0
20170324161210 54 96 2.0 12.0 0.00 0.00 0.00 66 1021.1
20170324160710 54 76 2.0 6.0 0.00 0.00 0.00 66 1021.1
20170324160211 54 85 1.0 7.0 0.00 0.00 0.00 65 1020.9
20170324155710 54 105 4.0 8.0 0.00 0.00 0.00 68 1021.0
20170324155210 54 97 3.0 10.0 0.00 0.00 0.00 69 1020.9
20170324154711 54 77 2.0 8.0 0.00 0.00 0.00 68 1020.7
20170324154210 54 86 3.0 12.0 0.00 0.00 0.00 68 1020.9
20170324153710 54 72 6.0 12.0 0.00 0.00 0.00 67 1020.7
20170324153210 54 81 4.0 10.0 0.00 0.00 0.00 68 1020.8
20170324152711 54 96 6.0 12.0 0.00 0.00 0.00 70 1020.8
20170324152211 54 77 5.0 12.0 0.00 0.00 0.00 72 1021.0
20170324151711 54 76 3.0 12.0 0.00 0.00 0.00 73 1021.0
20170324151210 53 103 3.0 12.0 0.00 0.00 0.00 69 1021.2
20170324150710 53 86 3.0 8.0 0.00 0.00 0.00 71 1021.1
20170324150210 53 94 6.0 12.0 0.00 0.00 0.00 73 1021.1
20170324145710 53 101 3.0 9.0 0.00 0.00 0.00 77 1021.1
20170324145211 53 96 2.0 12.0 0.00 0.00 0.00 78 1021.2
20170324144710 53 101 2.0 13.0 0.00 0.00 0.00 79 1021.2
20170324144210 53 88 3.0 7.0 0.00 0.00 0.00 80 1021.1
20170324143711 53 80 6.0 10.0 0.00 0.00 0.00 81 1021.2
20170324143211 53 88 6.0 13.0 0.00 0.00 0.00 80 1021.2
20170324142710 53 93 6.0 12.0 0.00 0.00 0.00 81 1021.1
20170324142210 53 102 7.0 13.0 0.00 0.00 0.00 80 1021.1
20170324141713 53 91 5.0 13.0 0.00 0.00 0.00 80 1021.1
20170324141211 53 94 5.0 13.0 0.00 0.00 0.00 81 1021.1
20170324140710 53 85 7.0 14.0 0.00 0.00 0.00 80 1020.9
20170324140210 53 89 6.0 13.0 0.00 0.00 0.00 80 1021.1
20170324135711 53 88 5.0 10.0 0.00 0.00 0.00 80 1021.2
20170324135210 53 85 6.0 14.0 0.00 0.00 0.00 78 1021.1
20170324134711 53 93 6.0 12.0 0.00 0.00 0.00 79 1021.3
20170324134210 53 87 3.0 9.0 0.00 0.00 0.00 79 1021.5